Terug naar catalogus

STARLINK-35369

ActiefCommunicatieVLEO
NORAD 68705·PAYLOAD·🇺🇸 United States

Gelanceerd Apr 14, 2026 vanaf Cape Canaveral Space Force Station

Loading…

Volgende Passages (komende 24 uur)

TLE

VersSource: CelesTrak SupGP

Epoch: Sep 14, 2026, 21:46 UTC

1 68705C 26081G   26257.90743056  .00034916  00000+0  10315-2 0  2570
2 68705  53.1572 232.0707 0001285  92.6027  28.6901 15.34376360    19

Volg STARLINK-35369 in realtime met AllMySat

Download on the App Store